Accueil
METAR-TAF:

METAR-TAF

Aéroports :

Chugiak, Alaska, États-Unis

latitude: 61-25N, longitude: 149-31W, altitude: 29 m

Observation

Le bulletin a été fait il y a 22 minutes, à 14:56 UTC
Vent calme
Température 6°C
Humidité 81%
Pression 1005 hPa
Visibilité: 16.1 km
Ciel couvert à une hauteur de 10000 ft

METAR: PABV 201456Z AUTO 00000KT 10SM OVC100 06/03 A2967 RMK AO2 SLP055 6//// T00610033 57013 PNO $

Heure: 07:18 (15:18 UTC)


TAF: absent

Observations et prévisions météorologiques de plus de 4000 aéroports (messages METAR et TAF).

Les stations disponibles sont représentées par des disques jaunes et rouges sur la carte.

Passer la souris dessus pour voir le nom de la station.

Cliquer dessus pour voir les observations et prévisions météorologiques.

Pour changer de carte: cliquez sur les boutons verts avec une croix noire pour zoomer, sur le bouton vert avec un tiret pour effectuer un zoom arrière, ou sur les flèches vertes pour les cartes adjacentes.


METAR-TAF: